TimeEST,TemperatureF,Dew PointF,Humidity,Sea Level PressureIn,VisibilityMPH,Wind Direction,Wind SpeedMPH,Gust SpeedMPH,PrecipitationIn,Events,Conditions,WindDirDegrees,DateUTC
12:17 AM,64.4,55.4,73,29.80,10.0,SSW,8.1,17.3,N/A,,Clear,210,2013-12-05 05:17:00
12:38 AM,64.4,55.4,73,29.80,10.0,SSW,9.2,18.4,N/A,,Clear,210,2013-12-05 05:38:00
12:58 AM,64.4,55.4,73,29.79,10.0,SSW,10.4,18.4,N/A,,Scattered Clouds,200,2013-12-05 05:58:00
1:17 AM,64.4,55.4,73,29.79,10.0,SSW,12.7,19.6,N/A,,Scattered Clouds,210,2013-12-05 06:17:00
1:38 AM,64.4,55.4,73,29.79,10.0,SSW,10.4,17.3,N/A,,Scattered Clouds,210,2013-12-05 06:38:00
1:57 AM,64.4,57.2,77,29.78,10.0,SSW,9.2,17.3,N/A,,Clear,210,2013-12-05 06:57:00
2:17 AM,64.4,57.2,77,29.79,10.0,SSW,6.9,17.3,N/A,,Clear,210,2013-12-05 07:17:00
2:38 AM,64.4,57.2,77,29.80,10.0,SW,9.2,-,N/A,,Scattered Clouds,220,2013-12-05 07:38:00
2:57 AM,64.4,57.2,77,29.80,10.0,SSW,9.2,-,N/A,,Overcast,210,2013-12-05 07:57:00
3:17 AM,62.6,57.2,82,29.81,10.0,SSW,6.9,-,N/A,,Overcast,210,2013-12-05 08:17:00
3:38 AM,62.6,57.2,82,29.81,10.0,SSW,5.8,-,N/A,,Mostly Cloudy,210,2013-12-05 08:38:00
3:57 AM,62.6,57.2,82,29.81,10.0,SW,6.9,-,N/A,,Mostly Cloudy,220,2013-12-05 08:57:00
4:17 AM,62.6,59.0,88,29.80,10.0,SSW,8.1,-,N/A,,Mostly Cloudy,210,2013-12-05 09:17:00
4:38 AM,62.6,59.0,88,29.80,10.0,SSW,6.9,-,N/A,,Mostly Cloudy,210,2013-12-05 09:38:00
4:57 AM,64.4,59.0,83,29.80,10.0,SSW,5.8,-,N/A,,Overcast,200,2013-12-05 09:57:00
5:17 AM,64.4,59.0,83,29.80,10.0,SSW,5.8,-,N/A,,Overcast,210,2013-12-05 10:17:00
5:38 AM,62.6,60.8,94,29.80,7.0,SSW,6.9,-,0.01,Rain,Light Rain,200,2013-12-05 10:38:00
5:58 AM,62.6,60.8,94,29.81,5.0,NW,9.2,-,0.07,Rain,Heavy Rain,310,2013-12-05 10:58:00
6:17 AM,62.6,60.8,94,29.81,4.0,WSW,6.9,-,0.24,Rain,Light Rain,240,2013-12-05 11:17:00
6:38 AM,62.6,60.8,94,29.82,7.0,SW,4.6,-,0.24,Rain,Light Rain,230,2013-12-05 11:38:00
6:58 AM,62.6,60.8,94,29.83,5.0,WSW,4.6,-,0.27,Rain,Rain,240,2013-12-05 11:58:00
7:17 AM,62.6,60.8,94,29.83,5.0,SW,5.8,-,0.05,Rain,Light Rain,230,2013-12-05 12:17:00
7:38 AM,62.6,60.8,94,29.83,5.0,SW,4.6,-,0.05,Rain,Light Rain,220,2013-12-05 12:38:00
7:58 AM,62.6,60.8,94,29.83,4.0,WSW,5.8,-,0.07,Rain,Light Rain,240,2013-12-05 12:58:00
8:17 AM,62.6,60.8,94,29.83,5.0,WSW,4.6,-,N/A,,Overcast,240,2013-12-05 13:17:00
8:38 AM,62.6,60.8,94,29.86,3.0,WSW,8.1,-,0.17,Rain,Heavy Rain,240,2013-12-05 13:38:00
8:57 AM,62.6,62.6,100,29.86,2.5,West,9.2,-,0.25,Rain,Rain,280,2013-12-05 13:57:00
9:18 AM,55.4,55.4,100,29.88,5.0,NNW,12.7,-,N/A,,Light Drizzle,330,2013-12-05 14:18:00
9:38 AM,53.6,53.6,100,29.90,5.0,NNW,9.2,-,N/A,Rain,Light Rain,330,2013-12-05 14:38:00
9:57 AM,53.6,53.6,100,29.91,4.0,NW,9.2,-,N/A,,Overcast,310,2013-12-05 14:57:00
10:18 AM,53.6,51.8,94,29.93,5.0,NW,8.1,-,N/A,,Overcast,310,2013-12-05 15:18:00
10:38 AM,53.6,48.2,82,29.93,7.0,NW,8.1,-,N/A,Rain,Light Rain,320,2013-12-05 15:38:00
10:57 AM,53.6,50.0,88,29.93,7.0,NNW,3.5,-,N/A,,Overcast,330,2013-12-05 15:57:00
11:18 AM,53.6,46.4,77,29.94,10.0,NW,6.9,-,N/A,,Overcast,320,2013-12-05 16:18:00
11:38 AM,53.6,46.4,77,29.94,7.0,NNW,4.6,-,N/A,Rain,Light Rain,330,2013-12-05 16:38:00
11:57 AM,51.8,46.4,82,29.95,7.0,NNW,8.1,-,N/A,,Light Drizzle,340,2013-12-05 16:57:00
12:18 PM,51.8,44.6,76,29.95,7.0,NNW,8.1,-,0.01,Rain,Rain,330,2013-12-05 17:18:00
12:38 PM,50.0,44.6,82,29.96,10.0,NNW,10.4,-,0.01,Rain,Rain,340,2013-12-05 17:38:00
12:57 PM,50.0,42.8,76,29.96,10.0,NNW,4.6,-,0.01,,Overcast,330,2013-12-05 17:57:00
1:18 PM,48.2,44.6,87,29.97,4.0,NW,6.9,-,0.02,Rain,Light Rain,320,2013-12-05 18:18:00
1:38 PM,46.4,44.6,93,29.96,7.0,NNW,9.2,-,0.02,Rain,Rain,340,2013-12-05 18:38:00
1:57 PM,46.4,42.8,87,29.96,10.0,NNW,9.2,-,0.02,,Overcast,340,2013-12-05 18:57:00
2:18 PM,46.4,41.0,81,29.97,10.0,NNW,9.2,-,N/A,,Overcast,340,2013-12-05 19:18:00
2:38 PM,44.6,41.0,87,29.96,10.0,North,8.1,-,N/A,,Overcast,350,2013-12-05 19:38:00
2:57 PM,44.6,37.4,76,29.98,10.0,NW,9.2,-,N/A,,Overcast,320,2013-12-05 19:57:00
3:18 PM,44.6,37.4,76,29.98,10.0,NW,8.1,-,N/A,,Overcast,320,2013-12-05 20:18:00
3:38 PM,44.6,37.4,76,29.99,10.0,NW,10.4,-,N/A,,Overcast,320,2013-12-05 20:38:00
3:57 PM,42.8,37.4,81,29.99,10.0,NW,12.7,17.3,N/A,,Overcast,320,2013-12-05 20:57:00
4:18 PM,42.8,35.6,76,30.01,10.0,NNW,9.2,-,N/A,,Overcast,330,2013-12-05 21:18:00
4:38 PM,41.0,35.6,81,30.03,7.0,NNW,11.5,-,N/A,,Unknown,330,2013-12-05 21:38:00
4:57 PM,41.0,35.6,81,30.05,10.0,NW,10.4,-,N/A,,Overcast,320,2013-12-05 21:57:00
5:18 PM,41.0,35.6,81,30.07,10.0,NNW,11.5,17.3,N/A,,Overcast,330,2013-12-05 22:18:00
5:38 PM,39.2,35.6,87,30.10,5.0,NNW,12.7,21.9,0.01,,Unknown,330,2013-12-05 22:38:00
5:57 PM,37.4,35.6,93,30.08,10.0,North,6.9,-,0.01,,Overcast,360,2013-12-05 22:57:00
6:18 PM,37.4,35.6,93,30.05,5.0,North,8.1,-,N/A,Snow,Light Snow,360,2013-12-05 23:18:00
6:38 PM,37.4,35.6,93,30.05,7.0,North,8.1,-,0.01,Snow,Light Snow,350,2013-12-05 23:38:00
6:57 PM,37.4,35.6,93,30.06,10.0,North,9.2,-,0.01,,Overcast,10,2013-12-05 23:57:00
7:18 PM,37.4,35.6,93,30.05,7.0,NNE,4.6,-,N/A,Snow,Light Snow,30,2013-12-06 00:18:00
7:38 PM,35.6,35.6,100,30.06,7.0,NNE,4.6,-,0.01,,Overcast,20,2013-12-06 00:38:00
7:57 PM,35.6,35.6,100,30.06,10.0,North,3.5,-,0.01,,Overcast,10,2013-12-06 00:57:00
8:18 PM,35.6,35.6,100,30.07,10.0,North,4.6,-,N/A,,Overcast,350,2013-12-06 01:18:00
8:38 PM,35.6,35.6,100,30.09,7.0,NW,6.9,-,N/A,,Overcast,320,2013-12-06 01:38:00
8:57 PM,35.6,35.6,100,30.09,10.0,NNW,8.1,-,N/A,,Overcast,340,2013-12-06 01:57:00
9:18 PM,35.6,35.6,100,30.12,7.0,NW,8.1,-,N/A,,Overcast,320,2013-12-06 02:18:00
9:38 PM,35.6,33.8,93,30.13,4.0,NW,9.2,-,N/A,Snow,Light Snow,320,2013-12-06 02:38:00
9:57 PM,35.6,33.8,93,30.15,5.0,NW,6.9,-,N/A,,Overcast,320,2013-12-06 02:57:00
10:18 PM,33.8,33.8,100,30.11,7.0,North,8.1,-,N/A,Snow,Light Snow,360,2013-12-06 03:18:00
10:38 PM,33.8,33.8,100,30.12,7.0,NNW,8.1,-,N/A,,Overcast,340,2013-12-06 03:38:00
10:57 PM,33.8,33.8,100,30.12,5.0,NNW,9.2,-,N/A,Snow,Light Snow,330,2013-12-06 03:57:00
11:18 PM,33.8,33.8,100,30.12,7.0,NNW,6.9,-,N/A,,Overcast,340,2013-12-06 04:18:00
11:38 PM,33.8,33.8,100,30.15,5.0,North,4.6,-,0.01,Snow,Light Snow,360,2013-12-06 04:38:00
11:57 PM,33.8,32.0,93,30.15,7.0,North,4.6,-,0.01,Snow,Light Snow,360,2013-12-06 04:57:00